Weather reports worldwide

Advertisment
Grenoble/St.Geoirs, France (7486): temperature & dewpoint: 15.05.2019 16:00:00 - 21.05.2019 16:00:00 (CEST)Grenoble/St.Geoirs, France (7486): temperature 5cm: 15.05.2019 16:00:00 - 21.05.2019 16:00:00 (CEST)Grenoble/St.Geoirs, France (7486): temperature -20cm & temperature -100cm: 15.05.2019 16:00:00 - 21.05.2019 16:00:00 (CEST)Grenoble/St.Geoirs, France (7486): wind speed & gusts: 15.05.2019 16:00:00 - 21.05.2019 16:00:00 (CEST)Grenoble/St.Geoirs, France (7486): wind direction: 15.05.2019 16:00:00 - 21.05.2019 16:00:00 (CEST)Grenoble/St.Geoirs, France (7486): reduced air pressure: 15.05.2019 16:00:00 - 21.05.2019 16:00:00 (CEST)Grenoble/St.Geoirs, France (7486): visibility: 15.05.2019 16:00:00 - 21.05.2019 16:00:00 (CEST)Grenoble/St.Geoirs, France (7486): sunshine duration: 15.05.2019 16:00:00 - 21.05.2019 16:00:00 (CEST)Grenoble/St.Geoirs, France (7486): precipitation: 15.05.2019 16:00:00 - 21.05.2019 16:00:00 (CEST)
Date & Time tt [°C] td [°C] tt 5cm [°C] tt -20cm [°C] tt -100cm [°C] ff [km/h] ff [kn] fx [km/h] fx [kn] dd ppp [hPa] vv [km] sd [min] rr [mm]
21.05.2019 16:00:00 17,9 10,3 25,8 13,9 12,5 30 16 50 27 NNW 1013,9 6 60 0,0
21.05.2019 15:00:00 17,5 10,6 25,5 13,8 12,5 30 16 44 24 NNW 1014,0 8 60 0,0
21.05.2019 14:00:00 17,6 11,2 24,8 13,7 12,5 28 15 46 25 NNW 1014,0 8 60 0,0
21.05.2019 13:00:00 16,9 9,6 24,1 13,6 12,5 29 16 44 24 NNW 1014,3 10 60 0,0
21.05.2019 12:00:00 15,8 10,5 20,8 13,6 12,5 22 12 37 20 NNW 1014,6 12 16 0,0
21.05.2019 11:00:00 15,5 9,8 18,5 13,6 12,5 18 10 29 16 N 1014,7 14 19 0,0
21.05.2019 10:00:00 15,0 10,4 15,7 13,6 12,5 16 9 29 16 N 1014,5 7 8 0,0
21.05.2019 09:00:00 13,7 10,3 12,9 13,6 12,5 7 4 22 12 N 1014,6 7 10 0,0
21.05.2019 08:00:00 11,9 9,8 10,5 13,7 12,5 6 4 13 7 W 1014,5 6 0 0,0
21.05.2019 07:00:00 11,2 9,1 10,0 13,7 12,5 6 3 11 6 NE 1014,3 5 0 0,0
21.05.2019 06:00:00 11,4 9,1 10,3 13,7 12,5 0 0 18 10 N 1014,1 7 0 0,0
21.05.2019 05:00:00 11,6 9,2 10,6 13,7 12,5 4 2 14 8 WNW 1014,1 7 0 0,0
21.05.2019 04:00:00 11,6 9,3 10,7 13,8 12,5 9 5 22 12 NW 1014,1 8 0 0,0
21.05.2019 03:00:00 11,7 9,6 11,0 13,7 12,5 13 7 22 12 NNW 1014,0 7 0 0,0
21.05.2019 02:00:00 12,0 9,9 11,0 13,8 12,5 5 3 14 7 NNW 1014,0 8 0 0,0
21.05.2019 01:00:00 12,0 10,1 11,3 13,8 12,5 6 3 18 10 N 1013,9 10 0 0,6
21.05.2019 00:00:00 12,5 10,0 11,7 13,8 12,5 4 2 11 6 W 1013,6 11 0 0,0
20.05.2019 23:00:00 12,4 10,1 11,5 13,8 12,5 2 1 13 7 SSE 1013,5 12 0 0,0
20.05.2019 22:00:00 12,5 10,6 11,9 13,7 12,5 4 2 9 5 W 1013,2 12 0 0,0
20.05.2019 21:00:00 12,7 10,2 12,1 13,7 12,5 3 2 12 7 SSW 1012,5 15 0 0,0
20.05.2019 20:00:00 12,8 10,0 12,4 13,6 12,5 6 3 29 16 NW 1012,2 17 0 0,0
20.05.2019 19:00:00 14,1 10,1 14,0 13,6 12,5 12 6 23 12 N 1011,4 20 0 0,0
20.05.2019 18:00:00 13,8 10,6 13,5 13,6 12,5 6 3 18 10 W 1011,2 14 0 0,0
20.05.2019 17:00:00 13,1 11,0 12,4 13,5 12,5 7 4 32 18 NW 1011,2 14 0 2,0
20.05.2019 16:00:00 14,9 9,7 14,6 13,5 12,5 10 6 24 13 NW 1010,7 26 0 0,0
20.05.2019 15:00:00 14,3 9,9 16,0 13,4 12,5 14 8 24 13 WNW 1010,7 19 0 0,0
20.05.2019 14:00:00 14,0 10,8 13,4 13,4 12,5 10 5 24 13 W 1010,6 14 0 0,2
20.05.2019 13:00:00 13,5 10,3 14,0 13,4 12,5 15 8 31 17 NW 1010,3 15 0 0,0
20.05.2019 12:00:00 12,8 10,2 12,6 13,5 12,5 15 8 25 13 NW 1010,1 7 0 0,0
20.05.2019 11:00:00 12,2 10,4 11,8 13,5 12,5 14 8 29 16 WNW 1010,0 10 0 0,2
20.05.2019 10:00:00 11,8 10,4 11,6 13,5 12,5 14 7 23 12 WNW 1009,5 3,1 0 0,2
20.05.2019 09:00:00 11,8 10,5 11,4 13,5 12,5 10 6 23 12 WNW 1009,1 10 0 0,8
20.05.2019 08:00:00 11,5 10,2 11,1 13,5 12,5 10 5 22 12 NW 1008,5 6 0 1,2
20.05.2019 07:00:00 11,7 9,8 10,8 13,6 12,5 10 6 19 11 NW 1008,2 8 0 0,0
20.05.2019 06:00:00 11,5 9,9 10,8 13,6 12,5 7 4 23 12 WNW 1007,8 14 0 0,0
20.05.2019 05:00:00 11,4 10,0 10,8 13,6 12,5 10 5 27 14 NW 1007,4 12 0 0,2
20.05.2019 04:00:00 11,8 9,9 11,1 13,7 12,5 16 8 30 16 WNW 1007,2 8 0 0,2
20.05.2019 03:00:00 11,9 9,8 11,3 13,7 12,5 8 4 17 9 WNW 1007,3 9 0 0,0
20.05.2019 02:00:00 12,1 9,8 11,3 13,7 12,5 10 5 18 10 WNW 1007,4 15 0 0,0
20.05.2019 01:00:00 11,9 10,0 11,0 13,7 12,5 8 4 13 7 WSW 1007,6 19 0 0,0
20.05.2019 00:00:00 12,0 9,7 11,0 13,7 12,5 8 5 21 11 NW 1007,7 13 0 0,0
19.05.2019 23:00:00 12,6 9,1 11,8 13,7 12,5 13 7 24 13 NW 1007,4 32 0 0,0
19.05.2019 22:00:00 12,9 9,0 11,9 13,7 12,5 10 5 26 14 NW 1006,9 36 0 0,0
19.05.2019 21:00:00 13,4 8,9 12,6 13,6 12,5 12 7 23 13 NNW 1006,1 36 0 0,0
19.05.2019 20:00:00 13,6 10,0 13,4 13,6 12,5 8 5 15 8 W 1005,8 35 0 0,0
19.05.2019 19:00:00 14,2 9,4 13,9 13,6 12,5 11 6 19 10 NW 1005,4 36 0 0,0
19.05.2019 18:00:00 14,5 9,7 16,3 13,5 12,5 9 5 20 11 N 1005,4 30 0 0,0
19.05.2019 17:00:00 14,4 9,4 16,7 13,5 12,5 11 6 29 15 NNW 1005,3 36 0 0,0
19.05.2019 16:00:00 14,7 9,3 14,3 13,5 12,5 18 10 29 16 NNW 1005,4 20 0 0,0
19.05.2019 15:00:00 12,2 9,6 12,4 13,6 12,5 5 3 20 11 S 1006,0 13 0 0,0
19.05.2019 14:00:00 11,7 9,1 11,6 13,6 12,5 6 3 23 13 NNW 1006,3 16 0 0,2
19.05.2019 13:00:00 11,3 8,3 10,9 13,6 12,5 13 7 29 16 NNW 1006,5 10 0 0,0
19.05.2019 12:00:00 10,9 8,1 10,5 13,6 12,5 11 6 34 18 NNW 1006,5 18 0 0,0
19.05.2019 11:00:00 10,6 8,0 10,0 13,7 12,5 16 8 28 15 NW 1006,5 22 0 0,0
19.05.2019 10:00:00 10,3 8,4 9,9 13,7 12,5 13 7 26 14 NW 1006,5 9 0 0,2
19.05.2019 09:00:00 10,4 8,7 9,9 13,8 12,5 8 5 27 14 W 1006,3 10 0 0,0
19.05.2019 08:00:00 10,3 8,6 9,8 13,9 12,5 12 6 26 14 WNW 1006,2 9 0 0,6
19.05.2019 07:00:00 10,3 8,7 9,6 13,9 12,4 14 7 23 12 NW 1006,0 16 0 0,6
19.05.2019 06:00:00 10,4 8,7 9,7 14,0 12,5 8 4 21 12 WNW 1006,1 15 0 0,2
19.05.2019 05:00:00 10,6 9,4 9,9 14,0 12,5 10 6 32 17 WNW 1006,2 19 0 0,8
19.05.2019 04:00:00 10,7 9,9 10,5 14,1 12,4 16 9 25 13 WSW 1006,2 2,8 0 4,7
19.05.2019 03:00:00 10,7 9,8 10,4 14,1 12,5 7 4 21 12 WSW 1006,6 2,2 0 5,8
19.05.2019 02:00:00 10,8 9,7 10,4 14,2 12,5 5 3 11 6 WSW 1007,0 3,5 0 1,4
19.05.2019 01:00:00 10,7 9,1 10,3 14,2 12,5 3 1 7 4 SW 1007,3 6 0 0,8
19.05.2019 00:00:00 11,2 9,9 10,7 14,2 12,5 6 3 8 4 S 1007,4 5 0 1,8
18.05.2019 23:00:00 11,6 10,2 11,0 14,2 12,5 4 2 8 4 WSW 1007,5 4,3 0 0,8
18.05.2019 22:00:00 12,1 10,3 10,8 14,1 12,5 3 1 5 3 SSE 1007,2 10 0 0,2
18.05.2019 21:00:00 12,3 8,6 11,2 14,1 12,5 0 0 5 3 N 1006,5 14 0 0,0
18.05.2019 20:00:00 12,8 9,1 12,0 14,0 12,5 3 1 12 7 S 1005,9 38 0 0,0
18.05.2019 19:00:00 12,7 8,6 12,2 13,9 12,5 10 5 17 9 SW 1005,7 33 0 0,2
18.05.2019 18:00:00 13,8 9,6 13,9 13,8 12,4 14 8 27 15 SW 1005,4 30 0 0,0
18.05.2019 17:00:00 15,1 9,5 17,3 13,7 12,5 15 8 29 15 WSW 1004,9 35 0 0,0
18.05.2019 16:00:00 15,6 7,6 19,7 13,6 12,5 5 3 11 6 S 1004,9 37 0 0,0
18.05.2019 15:00:00 15,0 6,5 16,7 13,4 12,5 6 3 16 9 W 1005,3 26 0 0,0
18.05.2019 14:00:00 15,4 6,4 16,2 13,4 12,5 3 2 12 6 NNW 1005,1 43 0 0,0
18.05.2019 13:00:00 15,7 6,7 21,0 13,3 12,5 7 4 13 7 NW 1005,2 55 1 0,0
18.05.2019 12:00:00 15,2 7,7 18,0 13,3 12,4 8 4 18 10 E 1005,3 28 16 0,0
18.05.2019 11:00:00 13,6 8,2 15,1 13,3 12,4 11 6 19 10 ENE 1005,5 9 0 0,0
18.05.2019 10:00:00 11,8 9,4 12,3 13,3 12,4 14 8 22 12 E 1005,8 7 0 0,0
18.05.2019 09:00:00 10,9 9,0 10,0 13,4 12,5 14 8 22 12 E 1005,9 5 28 0,0
18.05.2019 08:00:00 9,4 8,3 8,5 13,4 12,5 12 6 17 9 ENE 1006,0 4,6 0 0,0
18.05.2019 07:00:00 8,7 7,8 8,1 13,5 12,4 11 6 15 8 E 1006,1 3,0 0 0,0
18.05.2019 06:00:00 8,7 7,8 8,2 13,5 12,4 9 5 13 7 E 1006,2 2,1 0 0,0
18.05.2019 05:00:00 8,7 7,8 8,0 13,6 12,4 9 5 14 8 E 1006,5 3,4 0 0,0
18.05.2019 04:00:00 8,9 7,8 8,2 13,6 12,4 10 6 15 8 ENE 1006,8 4,7 0 0,0
18.05.2019 03:00:00 8,9 7,8 8,4 13,7 12,4 11 6 18 10 E 1007,1 4,7 0 0,0
18.05.2019 02:00:00 9,0 7,8 8,5 13,7 12,4 13 7 20 11 ENE 1007,4 8 0 0,0
18.05.2019 01:00:00 9,1 8,0 8,6 13,8 12,4 9 5 13 7 ENE 1007,8 4,0 0 0,2
18.05.2019 00:00:00 9,2 8,0 8,6 13,8 12,4 8 4 11 6 ENE 1007,9 4,5 0 0,0
17.05.2019 23:00:00 9,2 7,8 8,7 13,8 12,4 8 5 12 6 E 1008,0 8 0 0,0
17.05.2019 22:00:00 9,5 8,1 8,8 13,9 12,4 5 3 8 4 E 1007,9 6 0 0,0
17.05.2019 21:00:00 9,8 8,1 9,1 13,9 12,4 3 1 7 4 NE 1007,6 8 0 0,2
17.05.2019 20:00:00 9,7 7,6 9,3 13,9 12,4 4 2 14 7 NE 1007,5 14 0 0,0
17.05.2019 19:00:00 10,1 8,9 9,4 13,9 12,4 8 5 13 7 ENE 1007,4 5 0 0,6
17.05.2019 18:00:00 9,9 7,7 9,5 13,9 12,4 6 3 13 7 ENE 1007,6 5 0 0,8
17.05.2019 17:00:00 10,1 7,2 9,7 13,9 12,4 4 2 8 4 ESE 1007,5 7 0 2,6
17.05.2019 16:00:00 11,1 7,0 10,5 13,9 12,4 8 5 16 9 SSW 1007,5 23 0 0,4
17.05.2019 15:00:00 12,4 6,2 12,2 13,9 12,4 9 5 15 8 S 1007,1 25 0 0,0
17.05.2019 14:00:00 11,9 6,2 11,8 13,9 12,4 9 5 19 10 S 1007,0 10 0 0,2
17.05.2019 13:00:00 12,6 4,8 13,0 13,9 12,4 16 9 22 12 SSW 1006,5 37 0 0,0
17.05.2019 12:00:00 12,6 5,5 13,7 13,9 12,3 8 4 13 7 E 1006,2 31 0 0,0
17.05.2019 11:00:00 12,2 5,4 13,6 14,0 12,3 6 4 16 8 E 1006,1 26 0 0,0
17.05.2019 10:00:00 12,0 5,2 13,3 14,1 12,4 7 4 13 7 SE 1005,9 34 0 0,0
17.05.2019 09:00:00 11,6 4,3 12,0 14,2 12,4 5 3 10 6 SE 1006,0 35 0 0,0
17.05.2019 08:00:00 10,5 5,0 9,2 14,2 12,3 8 4 13 7 ENE 1005,9 23 0 0,0
17.05.2019 07:00:00 9,5 4,3 6,5 14,3 12,3 3 2 6 3 NNE 1006,5 34 0 0,0
17.05.2019 06:00:00 9,7 2,8 6,6 14,4 12,4 6 4 18 10 SE 1006,4 44 0 0,0
17.05.2019 05:00:00 10,9 2,2 8,5 14,5 12,3 7 4 19 10 SSW 1007,0 47 0 0,0
17.05.2019 04:00:00 11,2 1,1 7,8 14,6 12,3 7 4 26 14 WSW 1007,3 47 0 0,0
17.05.2019 03:00:00 10,3 1,9 6,5 14,7 12,3 6 3 17 9 W 1007,8 44 0 0,0
17.05.2019 02:00:00 10,9 2,2 5,8 14,7 12,3 4 2 19 10 SSE 1008,3 46 0 0,0
17.05.2019 01:00:00 11,5 4,5 7,7 14,8 12,3 10 5 23 12 SW 1008,9 38 0 0,0
17.05.2019 00:00:00 10,6 5,8 8,4 14,8 12,3 9 5 14 8 ESE 1009,1 26 0 0,0
16.05.2019 23:00:00 10,8 5,3 7,6 14,7 12,3 5 3 10 5 ESE 1008,9 27 0 0,0
16.05.2019 22:00:00 12,1 5,5 5,9 14,7 12,3 5 3 10 5 S 1008,7 35 0 0,0
16.05.2019 21:00:00 13,2 6,1 9,2 14,5 12,3 6 3 11 6 NNW 1008,2 36 22 0,0
16.05.2019 20:00:00 15,5 5,4 15,8 14,4 12,3 8 4 13 7 N 1008,0 41 48 0,0
16.05.2019 19:00:00 17,1 5,4 20,5 14,1 12,3 7 4 21 11 NNW 1008,2 33 52 0,0
16.05.2019 18:00:00 17,7 5,0 23,5 13,9 12,3 13 7 24 13 NW 1008,4 32 54 0,0
16.05.2019 17:00:00 18,1 6,0 26,5 13,6 12,3 8 4 22 12 NNW 1008,5 20 60 0,0
16.05.2019 16:00:00 17,8 5,0 27,2 13,4 12,3 11 6 20 11 W 1009,0 20 60 0,0
16.05.2019 15:00:00 17,4 5,7 24,9 13,2 12,3 5 3 21 12 NE 1009,8 26 60 0,0
16.05.2019 14:00:00 16,1 4,8 24,3 13,0 12,3 14 8 23 12 W 1010,8 20 60 0,0
16.05.2019 13:00:00 15,2 4,8 22,6 13,0 12,3 8 4 20 11 W 1011,3 23 60 0,0
16.05.2019 12:00:00 14,7 6,0 21,7 13,0 12,3 5 3 16 9 N 1011,9 20 60 0,0
16.05.2019 11:00:00 12,3 3,5 20,1 13,1 12,3 6 4 13 7 WNW 1013,1 20 60 0,0
16.05.2019 10:00:00 11,6 3,4 19,4 13,2 12,3 3 2 9 5 SSW 1013,5 19 60 0,0
16.05.2019 09:00:00 8,3 2,7 12,9 13,3 12,3 4 2 9 5 WNW 1014,6 19 60 0,0
16.05.2019 08:00:00 6,4 3,2 3,2 13,4 12,3 4 2 11 6 NE 1015,0 18 60 0,0
16.05.2019 07:00:00 1,8 0,2 -1,5 13,6 12,3 8 4 10 6 ESE 1015,8 13 28 0,0
16.05.2019 06:00:00 0,8 -0,8 -2,0 13,7 12,3 8 4 11 6 E 1015,8 11 0 0,0
16.05.2019 05:00:00 1,8 0,3 -1,9 13,8 12,3 5 3 6 4 E 1015,8 11 0 0,0
16.05.2019 04:00:00 2,5 0,2 -1,5 13,9 12,3 3 2 11 6 E 1016,2 21 0 0,0
16.05.2019 03:00:00 3,2 0,8 0,0 14,0 12,3 7 4 10 6 E 1016,0 24 0 0,0
16.05.2019 02:00:00 5,3 0,8 0,6 14,2 12,3 5 3 15 8 S 1016,0 25 0 0,0
16.05.2019 01:00:00 5,9 1,2 -0,2 14,2 12,3 5 3 10 5 WNW 1016,1 37 0 0,0
16.05.2019 00:00:00 6,1 1,0 2,9 14,2 12,3 6 4 17 9 ESE 1016,7 35 0 0,0
15.05.2019 23:00:00 7,7 1,7 5,2 14,2 12,3 12 7 20 11 ENE 1016,8 37 0 0,0
15.05.2019 22:00:00 8,8 1,9 6,2 14,2 12,3 11 6 22 12 NNE 1016,4 40 0 0,0
15.05.2019 21:00:00 10,4 2,7 8,4 14,2 12,3 12 6 20 11 NNE 1015,8 40 11 0,0
15.05.2019 20:00:00 12,6 2,4 12,0 14,0 12,3 11 6 24 13 NNE 1015,2 45 0 0,0
15.05.2019 19:00:00 14,0 3,4 14,5 13,9 12,3 11 6 24 13 NE 1014,7 35 0 0,0
15.05.2019 18:00:00 14,7 2,6 17,1 13,7 12,3 16 9 30 16 N 1014,4 40 7 0,0
15.05.2019 17:00:00 15,5 3,9 17,0 13,6 12,3 16 9 39 21 NNW 1014,2 20 12 0,0
15.05.2019 16:00:00 15,5 4,2 18,0 13,4 12,3 19 11 42 23 NNW 1014,3 38 18 0,0

tt = temperature
td = dewpoint
tt 5cm = temperature 5cm
tt -20cm = temperature -20cm
tt -100cm = temperature -100cm
ff = wind speed
fx = gusts
dd = wind direction
ppp = reduced air pressure
vv = visibility
sd = sunshine duration
rr = precipitation

Next stations